Location: Bry
(48.8381°N, 2.5249°E)
Time: 17:30:13
(UTC+00:00)

Daily predictions for brighter satellites

Satellite Brightness Start Highest point End
(mag) Time Altitude Azimuth Time Altitude Azimuth Time Altitude Azimuth
CORIOLIS 4.1 17:03:39 10° SSE 17:08:58 75° ENE 17:14:20 10° NNW
CZ-4C R/B 4.0 17:09:23 10° N 17:12:30 46° WNW 17:15:41 10° SW
Cosmos 1328 3.7 17:10:23 10° N 17:14:21 72° E 17:18:17 10° SSE
SAR-Lupe-4 4.5 17:12:20 10° NE 17:15:29 28° E 17:18:37 10° SSE
SMAP 3.3 17:14:26 10° S 17:19:04 78° WSW 17:23:46 10° NNW
Cosmos 2219 3.8 17:15:35 10° NNW 17:20:56 38° NE 17:26:16 10° ESE
Cosmos 1331 Rocket 4.4 17:16:53 10° S 17:21:42 41° ESE 17:26:32 10° NE
Cosmos 1818 4.1 17:16:56 10° SW 17:22:18 62° NW 17:27:45 10° NE
Timation 2 Rocket 4.2 17:19:09 10° NNW 17:25:38 60° NE 17:32:20 10° SE
Cosmos 1356 Rocket 4.1 17:24:44 10° SSW 17:28:57 62° WNW 17:33:15 10° N
CZ-4 R/B 2.3 17:25:48 10° ESE 17:29:03 26° ENE 17:32:17 10° N
COSMO-SKYMED 1 3.1 17:27:40 10° NNE 17:31:42 36° E 17:35:43 10° SSE
SAR-Lupe-1 4.5 17:29:47 10° NNE 17:33:13 41° E 17:36:37 10° S
Aureole 3 4.0 17:31:13 10° SE 17:33:37 20° E 17:35:54 10° NE
Cosmos 1943 Rocket 4.2 17:30:54 10° W 17:35:13 23° NW 17:39:34 10° N
SeaSat 1 3.6 17:32:11 10° E 17:36:06 25° NE 17:40:05 10° N
Cosmos 1400 Rocket 3.8 17:33:11 10° SSE 17:36:40 27° E 17:40:08 10° NE
H-2A R/B 3.3 17:33:20 10° N 17:37:18 42° WNW 17:41:11 10° SW
ATLAS 2AS CENTAUR R/B 4.1 17:32:18 10° NW 17:38:52 28° NNE 17:44:29 12° ENE
USA 215 3.8 17:33:06 11° ENE 17:39:03 46° N 17:45:13 10° WNW
Okean O Rocket 2.7 17:35:02 10° S 17:39:16 48° W 17:43:30 10° NNW
Cosmos 968 Rocket 4.2 17:38:14 10° N 17:42:59 33° NE 17:47:40 10° ESE
CZ-4B R/B 4.4 17:38:18 10° S 17:43:42 47° W 17:49:03 10° NNW
CZ-2C R/B 3.7 17:38:26 10° SE 17:43:48 41° ENE 17:49:03 10° N
Cosmos 1825 Rocket 3.7 17:39:55 10° N 17:44:24 84° W 17:48:49 10° S
COSMOS 2487 4.3 17:42:11 10° NW 17:45:22 35° WSW 17:48:31 10° S
ATLAS 5 CENTAUR R/B 3.5 17:41:50 10° W 17:45:26 24° NNW 17:49:28 10° NNE
USA 305 3.5 17:41:52 10° WNW 17:46:01 44° N 17:49:00 17° ENE
GENESIS II 4.4 17:44:04 10° SSW 17:48:01 55° SE 17:51:29 13° NE
Cosmos 1110 Rocket 3.9 17:43:01 10° SSW 17:48:16 76° ESE 17:53:30 10° NNE
Cosmos 1689 Rocket 2.3 17:45:37 10° NNE 17:48:25 42° E 17:51:10 10° S
YAOGAN 1 3.0 17:45:31 10° SE 17:49:32 38° ENE 17:53:33 10° N
Cosmos 1302 Rocket 4.4 17:46:10 10° S 17:51:02 40° ESE 17:55:57 10° NE
Meteor 2-10 Rocket 4.5 17:47:35 10° SE 17:51:49 24° E 17:55:56 10° NE
USA 306 3.5 17:48:11 10° WNW 17:52:19 45° N 17:55:01 20° ENE
Meteor 2-21 Rocket 4.5 17:47:14 10° N 17:53:29 89° W 17:59:37 10° S
Cosmos 1486 Rocket 4.4 17:49:03 10° NNW 17:54:07 42° ENE 17:59:10 10° SE
ARGOS 4.0 17:50:29 10° ESE 17:54:58 28° ENE 17:59:32 10° N
Cosmos 1553 Rocket 4.3 17:49:15 10° SSE 17:55:10 43° E 18:01:03 10° NNE
Cosmos 2227 Rocket 2.4 17:52:23 10° NNW 17:57:54 51° NE 18:03:24 10° SE
SL-4 R/B 2.1 17:56:09 10° W 17:59:38 54° N 18:01:41 23° ENE
Cosmos 1892 3.2 17:57:52 10° N 18:01:32 37° ENE 18:05:09 10° SE
Cosmos 1726 Rocket 3.4 17:57:41 10° S 18:02:02 83° E 18:06:26 10° N
Cosmos 1656 4.2 17:57:26 10° S 18:02:25 35° ESE 18:07:22 11° NE
Cosmos 1346 Rocket 3.5 18:01:02 10° N 18:04:37 31° ENE 18:06:07 24° ESE
Cosmos 2263 Rocket 3.8 18:03:00 10° N 18:06:34 17° NE 18:07:58 15° NE
NOSS 2-2 (C) 4.4 18:01:16 10° NW 18:06:40 84° NE 18:14:14 10° SE
BREEZE-M R/B 3.4 18:03:22 10° W 18:07:05 81° N 18:11:39 22° E
MOS 1 Rocket 4.0 18:04:40 10° NNE 18:08:48 31° E 18:13:07 10° SSE
Okean-O 2.5 18:04:36 10° SSE 18:09:01 75° ENE 18:13:28 10° N
CSL-04 Rocket 3.9 18:04:06 10° SE 18:09:23 47° ENE 18:14:40 10° N
CZ-2D R/B 3.2 18:05:49 10° SSE 18:09:38 90° WSW 18:13:28 10° NNW
FALCON 9 DEB 4.0 18:06:52 10° WNW 18:10:07 39° N 18:11:23 27° NE
Aureole 3 Rocket 3.0 18:08:03 10° S 18:11:50 66° E 18:17:03 10° NNE
Cosmos 1300 3.0 18:11:12 10° SSW 18:14:59 68° W 18:18:48 10° N
SJ-11-01 4.4 18:12:05 10° SE 18:16:34 48° ENE 18:21:04 10° N
Cosmos 2228 3.8 18:12:41 10° SSW 18:16:50 52° WNW 18:21:02 10° N
Cosmos 1606 Rocket 4.2 18:12:37 10° SSW 18:16:54 56° WNW 18:21:15 10° N
GEOS 3 Rocket 3.6 18:12:44 15° SE 18:17:10 76° NE 18:22:35 10° NW
Cosmos 1697 Rocket 3.5 18:13:59 10° SSE 18:18:33 26° ESE 18:18:40 26° E
SL-08 R/B 4.4 18:12:45 10° N 18:18:59 74° E 18:25:06 10° SSE
Cosmos 1745 Rocket 4.1 18:12:50 10° N 18:19:00 56° ENE 18:25:12 10° SSE
SKYMED 2 3.7 18:15:32 10° N 18:19:54 76° WNW 18:24:14 10° SSW
CZ-4C R/B 4.0 18:15:42 10° NW 18:20:58 25° NNE 18:24:33 18° NE
Cosmos 44 3.0 18:16:32 10° SSW 18:21:02 81° SE 18:24:23 20° NE
ERBS 4.2 18:20:49 10° WNW 18:23:25 20° N 18:24:22 18° NNE
Lacrosse 5 3.0 18:19:39 10° WNW 18:24:15 33° N 18:26:52 21° NE
Cosmos 1408 2.8 18:22:27 10° N 18:25:49 45° ENE 18:25:49 45° ENE
Cosmos 1825 3.5 18:24:47 10° N 18:26:46 24° NNE 18:26:46 24° NNE
H-2A R/B 2.1 18:23:38 10° SSE 18:28:58 64° ENE 18:34:22 10° N
CZ-4B R/B 4.0 18:27:13 10° NNW 18:29:45 21° WNW 18:32:13 10° WSW
Cosmos 1992 Rocket 4.4 18:27:52 10° S 18:32:37 37° ESE 18:32:52 37° E
Meteor 2-15 4.4 18:26:36 10° S 18:32:38 62° E 18:38:41 10° NNE
USA 307 3.1 18:30:22 10° WNW 18:34:37 58° NNE 18:35:30 47° ENE
Cosmos 1386 Rocket 4.4 18:30:32 10° N 18:36:58 70° ENE 18:43:18 10° SSE
Cosmos 2297 Rocket 2.4 18:32:33 10° NNW 18:38:14 74° WSW 18:43:51 10° SSE
FALCON 9 DEB 3.4 18:36:01 10° SW 18:38:42 50° SSW 18:38:42 50° SSW
USA 308 3.0 18:35:10 10° WNW 18:39:25 61° NNE 18:40:06 52° ENE
Ariane Rocket 3.7 18:41:47 33° NE 18:41:47 33° NE 18:45:54 10° N
In-Cosmos 22 Rocket 4.4 18:36:00 10° NNW 18:41:20 69° W 18:46:43 10° S
Helios 1A Rocket 4.1 18:37:23 10° S 18:41:20 43° W 18:45:17 10° NNW
Cosmos 1340 3.5 18:38:38 10° NNW 18:42:18 49° W 18:45:58 10° S
Geosat 3.9 18:40:17 20° NE 18:43:51 72° ESE 18:48:52 10° SSW
BREEZE-M R/B 2.9 18:38:46 10° W 18:45:07 89° NNW 18:45:14 83° E
FALCON 9 DEB 3.7 18:42:27 10° SW 18:44:54 47° SW 18:44:54 47° SW
Cosmos 2058 Rocket 3.7 18:41:24 10° SSW 18:45:49 57° WNW 18:50:17 10° N
CSL-04 Debris 4.1 18:41:49 10° SSE 18:47:15 86° WSW 18:52:47 10° NNW
Cosmos 1709 Rocket 4.1 18:42:48 10° N 18:49:03 54° ENE 18:51:44 33° SE
FALCON 9 DEB 4.2 18:51:49 10° WSW 18:53:58 38° SW 18:53:58 38° SW
Cosmos 2058 3.1 18:56:18 10° NNW 19:00:23 68° W 19:01:47 39° SSW
CZ-4 R/B 3.2 19:00:32 10° SSW 19:04:01 30° W 19:07:28 10° NNW
Cosmos 2315 Rocket 4.2 18:58:47 10° SSE 19:05:45 47° ENE 19:10:44 10° NNE
Cosmos 2219 4.3 18:59:45 10° NW 19:05:12 45° WSW 19:10:38 10° S
Cosmos 883 Rocket 4.3 19:01:09 10° S 19:07:15 65° E 19:13:19 10° NNE
BREEZE-M TANK 3.2 19:02:20 10° W 19:07:49 44° SSW 19:07:55 44° SSW
NOSS 3-4 (A) 4.0 19:02:37 10° NW 19:09:14 51° NE 19:10:30 46° ENE
NOSS 3-4 (C) 4.0 19:02:44 10° NW 19:09:20 51° NE 19:10:36 46° ENE
S3M 4.0 19:03:27 10° SSW 19:09:33 80° W 19:15:46 10° N
Timation 1 Rocket 4.2 19:05:41 10° NNW 19:11:42 70° ENE 19:12:19 65° E
SeaSat 1 2.6 19:11:59 49° S 19:13:14 70° WSW 19:18:11 10° NNW
Cosmos 2082 3.7 19:09:46 10° NNW 19:15:32 80° WSW 19:16:57 53° SSE
NOSS 3-3 (A) 3.9 19:13:59 10° SSW 19:19:18 63° SSE 19:19:18 63° SSE
NOSS 3-3 (C) 3.9 19:14:05 10° SSW 19:19:26 63° SSE 19:19:26 63° SSE
USA 215 3.2 19:20:27 60° E 19:21:38 74° NNE 19:28:10 10° NW
Cosmos 1076 Rocket 4.1 19:19:21 10° NNW 19:23:14 53° W 19:23:14 53° W
USA 305 3.8 19:22:00 10° WNW 19:25:08 47° WNW 19:25:08 47° WNW
Cosmos 2369 4.4 19:22:31 10° SSW 19:26:16 42° S 19:26:16 42° S
ATLAS 2AS CENTAUR R/B 3.0 19:24:04 10° NW 19:31:34 55° NE 19:31:55 54° NE
ATLAS 5 CENTAUR R/B 4.1 19:28:53 10° NW 19:31:50 16° N 19:32:24 15° N
USA 306 4.1 19:28:18 10° WNW 19:31:10 41° WNW 19:31:10 41° WNW
Meteor 2-10 Rocket 4.3 19:28:24 10° SSW 19:33:35 50° WNW 19:38:36 10° N
ARGOS 3.9 19:32:00 25° SSW 19:34:57 51° W 19:40:16 10° NNW
SL-4 R/B 4.1 19:35:47 10° WNW 19:37:16 23° WNW 19:37:16 23° WNW
Cosmos 2227 Rocket 3.8 19:36:51 10° NW 19:41:43 30° WSW 19:45:29 15° SSW
Cosmos 2263 Rocket 3.2 19:46:02 10° NNW 19:49:39 38° N 19:49:39 38° N
Cosmos 1697 Rocket 3.6 19:56:37 10° SW 20:00:29 42° WSW 20:00:29 42° WSW
Lacrosse 5 3.6 20:03:24 10° NW 20:06:03 27° NNW 20:06:03 27° NNW
H-2A R/B 4.4 20:04:44 10° SW 20:08:50 22° W 20:12:59 10° NW
CZ-4C R/B 3.4 20:04:21 10° NW 20:09:44 46° N 20:09:44 46° N
ATLAS 2AS CENTAUR R/B 4.3 21:15:27 10° NW 21:19:21 30° WNW 21:19:21 30° WNW
